Weather in Damaskino

Russia / Kirov Oblast     56°47′38″N   51°15′43″E
temp.,
°C
wind,
m/s
gust,
m/s
humid.,
%
clouds,
%
prec.,
mm/h
press.,
hPa
HPBL,
m
20 september, mon
mon2000:00+1nnw117750 0.0 102715
03:00−1nnw23805 0.0 102841
06:00−1n228088 0.0 102845
09:00+5ne3451100 0.0 10291026
12:00+8ne2342100 0.0 10291301
15:00+9ne234385 0.0 10281318
18:00+4ene2267100 0.0 102825
21:00+2e367969 0.0 1029104
21 september, tue
tue2100:000e389067 0.0 1030157
03:00−1e38955 0.0 1030157
06:00−1e389447 0.0 1029189
09:00+6e466110 0.0 1028593
12:00+10e344910 0.0 10271084
15:00+10e444918 0.0 10251119
18:00+5e35737 0.0 102578
21:00+3e368126 0.0 1024104
22 september, wed
wed2200:00+2e388618 0.0 1024138
03:00+1e39895 0.0 1024169
06:00+1e3108993 0.0 1023211
09:00+8e5959100 0.0 1023477
12:00+12e5846100 0.0 1022837
15:00+12e5847100 0.0 1022885
18:00+8e3106489 0.0 1022276
21:00+9e51259100 0.0 1022447
23 september, thu
thu2300:00+8e41160100 0.0 1022371
03:00+8ese41160100 0.0 1022354
06:00+8ese41161100 0.0 1022322
09:00+11ese4125786 0.0 1022402
12:00+17sse5840100 0.0 10211112
15:00+13sw3756100 0.0 1022302
18:00+10s1284100 0.0 102247
21:00+9sse41387100 0.9 1022786
24 september, fri
fri2400:00+8sse4109397 0.9 1021594
03:00+9sse41295100 0.9 1021580
06:00+9se5139493 0.0 1020538
09:00+11sse61378100 0.0 1019610
12:00+12sse51064100 0.0 1018771
15:00+12sse61058100 0.1 1017964
18:00+8se51294100 6.7 1017506
21:00+8e41189100 7.6 1015298